Location: Passo di Treia
(43.2833°N, 13.3333°E)
Time: 12:53:02
(UTC+00:00)

Cosmos 1500 - Pass Details

Date: 09 December 2019
Orbit: 499 x 521 km, 82.5° (Epoch: 16 January)

Event Time Altitude Azimuth Distance (km) Brightness Sun altitude
Rises 16:30:02 0° 352° (N) 2,618 6.6 -10.5°
Reaches altitude 10° 16:32:10 10° 353° (N) 1,725 5.7 -10.8°
Maximum altitude 16:35:57 86° 80° (E) 510 3.1 -11.5°
Drops below altitude 10° 16:39:41 10° 172° (S) 1,701 6.0 -12.1°
Sets 16:41:47 0° 172° (S) 2,577 6.9 -12.5°
